Location: Slave Lake
(55.2830°N, 114.7830°W)
Time: 23:12:57
(UTC-07:00)

Amateur Radio Satellites - All Passes

Search period start: 21 February 2017 22:42
Search period end: 22 February 2017 22:42
Location: Slave Lake, 55.2830°N, 114.7830°W

Satellite Date Start Highest point End Downlink Frequencies (MHz)
Time Altitude Azimuth
SPROUT 21 Feb 22:44:24 22:47:51 24° 59° (ENE) 22:51:20 437.525
PRISM 21 Feb 22:47:11 22:51:15 72° 289° (WNW) 22:55:19 437.425
RS-15 21 Feb 22:51:07 23:03:13 56° 353° (N) 23:15:20 29.354- 29.394
PCSat 21 Feb 22:55:31 22:59:59 25° 9° (N) 23:04:28 145.827
AIST 2D 21 Feb 22:56:02 22:57:29 12° 86° (E) 22:58:56 435.315
ESTCUBE 1 21 Feb 22:58:25 23:02:56 86° 77° (ENE) 23:07:30 437.505/2401.250
SO-50 21 Feb 23:00:25 23:02:45 14° 112° (ESE) 23:05:04 436.795
DELFI C3 21 Feb 23:02:26 23:03:34 11° 276° (W) 23:04:43 145.870
UNISAT 6 21 Feb 23:19:12 23:23:58 81° 286° (WNW) 23:28:40 437.425
TIGRISAT 21 Feb 23:20:46 23:25:31 83° 286° (WNW) 23:30:14 435.000
DUCHIFAT 1 21 Feb 23:26:54 23:29:31 16° 87° (E) 23:32:07 145.980
EO-79 21 Feb 23:32:34 23:35:46 20° 90° (E) 23:38:58 145.935-145.965
FO-29 21 Feb 23:34:39 23:42:34 71° 102° (ESE) 23:49:57 435.910
VELOX 1 21 Feb 23:41:14 23:45:37 85° 75° (ENE) 23:50:03 145.980
DX 1 21 Feb 23:46:09 23:50:20 51° 67° (ENE) 23:54:33 434.975-435.025
POLYITAN 1 21 Feb 23:48:30 23:52:13 27° 94° (E) 23:55:54 437.675
QB50P2 21 Feb 23:51:14 23:55:03 30° 95° (E) 23:58:52 145.880/145.840
NANOSAT C BR1 21 Feb 23:51:50 23:55:30 27° 93° (E) 23:59:09 145.865
O/OREOS (USA 219) 21 Feb 23:53:26 23:57:27 33° 109° (ESE) 00:01:31 437.305
YUBILEINY 22 Feb 00:01:58 00:09:27 33° 280° (W) 00:16:54 435.215
50 SAT 22 Feb 00:05:39 00:09:09 75° 256° (WSW) 00:12:41 437.505
UKube-1 22 Feb 00:06:13 00:10:26 58° 68° (ENE) 00:14:41 .
ITUPSAT 1 22 Feb 00:14:31 00:16:40 13° 45° (NE) 00:18:49 437.325
SPROUT 22 Feb 00:19:19 00:23:31 56° 259° (W) 00:27:45 437.525
BEESAT 22 Feb 00:23:12 00:25:49 15° 48° (NE) 00:28:26 436.000
PRISM 22 Feb 00:23:52 00:25:52 13° 309° (NW) 00:27:52 437.425
AIST 2D 22 Feb 00:27:39 00:31:16 82° 286° (WNW) 00:34:50 435.315
ESTCUBE 1 22 Feb 00:37:33 00:40:24 16° 273° (W) 00:43:13 437.505/2401.250
SO-50 22 Feb 00:37:49 00:42:25 64° 132° (SE) 00:46:59 436.795
PCSat 22 Feb 00:39:23 00:44:39 46° 34° (NE) 00:49:52 145.827
BUGSAT 1 22 Feb 00:39:26 00:43:06 28° 94° (E) 00:46:46 437.445
UNISAT 6 22 Feb 00:56:55 01:00:00 18° 308° (NW) 01:03:05 437.425
TIGRISAT 22 Feb 00:58:25 01:01:34 18° 307° (NW) 01:04:42 435.000
DUCHIFAT 1 22 Feb 01:01:28 01:05:46 82° 287° (WNW) 01:10:03 145.980
RS-15 22 Feb 01:05:36 01:18:00 66° 26° (NNE) 01:30:08 29.354- 29.394
EO-79 22 Feb 01:07:41 01:11:57 64° 290° (WNW) 01:16:11 145.935-145.965
MOZHAYETS 4 22 Feb 01:18:24 01:21:07 16° 51° (NE) 01:23:51
FO-29 22 Feb 01:20:00 01:27:09 40° 305° (NW) 01:34:00 435.910
VELOX 1 22 Feb 01:20:01 01:22:42 16° 273° (W) 01:25:24 145.980
DX 1 22 Feb 01:23:12 01:26:47 25° 267° (W) 01:30:25 434.975-435.025
POLYITAN 1 22 Feb 01:24:04 01:28:12 46° 293° (WNW) 01:32:20 437.675
QB50P2 22 Feb 01:26:55 01:30:59 42° 294° (WNW) 01:35:01 145.880/145.840
NANOSAT C BR1 22 Feb 01:27:19 01:31:26 46° 293° (WNW) 01:35:31 145.865
O/OREOS (USA 219) 22 Feb 01:32:26 01:36:46 45° 310° (NW) 01:41:09 437.305
Oscar 19 22 Feb 01:43:25 01:48:10 36° 96° (E) 01:52:53 437.125/150
UKube-1 22 Feb 01:43:27 01:46:49 22° 268° (W) 01:50:13 .
ITUPSAT 1 22 Feb 01:48:51 01:53:32 53° 66° (ENE) 01:58:14 437.325
Gurwin Techsat 1B 22 Feb 01:57:20 02:02:02 30° 93° (E) 02:06:40 435.225
BEESAT 22 Feb 01:58:01 02:02:46 63° 68° (ENE) 02:07:31 436.000
AIST 2D 22 Feb 02:02:27 02:03:54 12° 305° (NW) 02:05:21 435.315
CUBESAT XI-V 22 Feb 02:09:36 02:10:24 10° 45° (NE) 02:11:13 437.345
BUGSAT 1 22 Feb 02:14:36 02:18:37 44° 294° (WNW) 02:22:39 437.445
KKS-1 22 Feb 02:17:19 02:20:02 16° 51° (NE) 02:22:46 437.445
SO-50 22 Feb 02:18:47 02:23:10 40° 334° (NNW) 02:27:30 436.795
PCSat 22 Feb 02:22:54 02:28:14 55° 237° (WSW) 02:33:31 145.827
DUCHIFAT 1 22 Feb 02:38:17 02:40:50 16° 307° (NW) 02:43:23 145.980
EO-79 22 Feb 02:45:00 02:46:56 13° 310° (NW) 02:48:54 145.935-145.965
AO-7 22 Feb 02:51:44 02:57:46 21° 85° (E) 03:03:45 .
MOZHAYETS 4 22 Feb 02:52:54 02:57:33 72° 71° (ENE) 03:02:13
STARS 22 Feb 03:01:37 03:04:42 19° 54° (NE) 03:07:49 437.465
POLYITAN 1 22 Feb 03:02:40 03:03:02 10° 314° (NW) 03:03:23 437.675
FO-29 22 Feb 03:05:48 03:10:13 16° 328° (NNW) 03:14:35 435.910
M-CUBED/EXP-1 PRIME 22 Feb 03:10:58 03:13:18 18° 52° (NE) 03:15:39 437.505
O/OREOS (USA 219) 22 Feb 03:14:41 03:17:21 15° 334° (NNW) 03:20:01 437.305
RS-15 22 Feb 03:18:45 03:30:59 69° 235° (SW) 03:42:47 29.354- 29.394
Oscar 19 22 Feb 03:22:44 03:27:37 45° 297° (WNW) 03:32:29 437.125/150
ITUPSAT 1 22 Feb 03:27:28 03:31:38 29° 266° (W) 03:35:50 437.325
BEESAT 22 Feb 03:37:03 03:40:56 24° 269° (W) 03:44:51 436.000
Gurwin Techsat 1B 22 Feb 03:37:05 03:42:19 58° 294° (WNW) 03:47:31 435.225
CUBESAT XI-V 22 Feb 03:42:18 03:46:43 44° 66° (ENE) 03:51:08 437.345
ITAMSAT 1 22 Feb 03:47:45 03:52:52 49° 100° (E) 03:57:56 435.822/435.867
KKS-1 22 Feb 03:51:32 03:55:57 80° 73° (ENE) 04:00:26 437.445
SO-50 22 Feb 04:00:47 04:04:39 26° 358° (N) 04:08:28 436.795
PCSat 22 Feb 04:08:30 04:10:31 12° 258° (WSW) 04:12:30 145.827
MOZHAYETS 4 22 Feb 04:31:46 04:35:13 20° 271° (W) 04:38:41
STARS 22 Feb 04:36:11 04:40:33 82° 252° (WSW) 04:45:00 437.465
AO-7 22 Feb 04:43:42 04:52:05 73° 109° (ESE) 05:00:23 .
M-CUBED/EXP-1 PRIME 22 Feb 04:44:21 04:47:34 51° 252° (WSW) 04:50:47 437.505
Oscar 19 22 Feb 05:03:51 05:05:49 12° 318° (NW) 05:07:47 437.125/150
Gurwin Techsat 1B 22 Feb 05:18:17 05:21:17 15° 315° (NW) 05:24:17 435.225
DOVE 4 22 Feb 05:19:38 05:20:50 11° 83° (E) 05:22:01 437.250
CUBESAT XI-V 22 Feb 05:20:02 05:24:14 32° 266° (W) 05:28:27 437.345
ITAMSAT 1 22 Feb 05:27:28 05:32:15 36° 300° (WNW) 05:37:00 435.822/435.867
KKS-1 22 Feb 05:30:12 05:33:06 17° 272° (W) 05:36:01 437.445
RS-15 22 Feb 05:32:15 05:41:10 25° 262° (W) 05:49:54 29.354- 29.394
SO-50 22 Feb 05:42:01 05:46:14 35° 22° (NNE) 05:50:22 436.795
STRAND 1 22 Feb 05:52:24 05:57:02 35° 60° (ENE) 06:01:42 437.568
XW-2F 22 Feb 06:06:01 06:08:55 20° 91° (E) 06:11:48 145.980 - 146.000
KAITUO 1B 22 Feb 06:07:35 06:10:16 18° 90° (E) 06:12:56 145.475/437.950
XW-2D 22 Feb 06:08:16 06:11:20 22° 92° (E) 06:14:22 145.860 - 145.880
CUTE-I 22 Feb 06:08:42 06:13:07 25° 91° (E) 06:17:30 437.470
XW-2B 22 Feb 06:13:09 06:16:19 24° 92° (E) 06:19:28 145.730 - 145.750
STARS 22 Feb 06:15:32 06:17:40 13° 274° (W) 06:19:47 437.465
AO-85 22 Feb 06:20:48 06:25:04 49° 129° (SE) 06:29:04 145.980
XW-2C 22 Feb 06:21:30 06:24:52 28° 94° (E) 06:28:14 145.795 - 145.815
FO-29 22 Feb 06:31:38 06:33:58 12° 19° (NNE) 06:36:18 435.910
LilacSat-2 22 Feb 06:34:15 06:37:55 38° 97° (E) 06:41:32 437.200
AO-7 22 Feb 06:36:51 06:44:28 41° 312° (NW) 06:52:02 .
O/OREOS (USA 219) 22 Feb 06:37:37 06:40:16 15° 26° (NNE) 06:42:55 437.305
NUDT-PHONESAT 22 Feb 06:46:26 06:50:03 41° 98° (E) 06:53:38 437.300
DOVE 4 22 Feb 06:54:53 06:59:22 64° 102° (ESE) 07:04:07 437.250
ITAMSAT 1 22 Feb 07:09:31 07:10:23 10° 322° (NW) 07:11:14 435.822/435.867
HO-68 22 Feb 07:16:17 07:22:07 26° 89° (E) 07:27:55 435.675
CUTE 1.7 + AOD 2 22 Feb 07:21:13 07:24:15 19° 89° (E) 07:27:17 437.475
SO-50 22 Feb 07:22:33 07:27:07 81° 225° (SW) 07:31:37 436.795
XW-2A 22 Feb 07:23:36 07:26:27 23° 94° (E) 07:29:17 145.665 - 145.685
STRAND 1 22 Feb 07:31:07 07:36:07 49° 260° (W) 07:41:09 437.568
XW-2F 22 Feb 07:39:37 07:43:22 52° 290° (WNW) 07:47:05 145.980 - 146.000
KAITUO 1B 22 Feb 07:40:54 07:44:40 57° 289° (WNW) 07:48:22 145.475/437.950
XW-2D 22 Feb 07:42:03 07:45:46 47° 291° (WNW) 07:49:28 145.860 - 145.880
XW-2B 22 Feb 07:47:02 07:50:43 44° 292° (WNW) 07:54:22 145.730 - 145.750
UWE-3 22 Feb 07:47:21 07:49:40 13° 83° (E) 07:51:59 435.000/436.395/437.385
CUTE-I 22 Feb 07:48:18 07:53:41 70° 291° (WNW) 07:59:02 437.470
XW-2C 22 Feb 07:55:36 07:59:11 36° 294° (WNW) 08:02:43 145.795 - 145.815
AO-85 22 Feb 08:01:29 08:05:34 41° 329° (NNW) 08:09:27 145.980
BEESAT 3 22 Feb 08:02:20 08:05:55 35° 125° (SE) 08:09:34 437.485
PRISM 22 Feb 08:08:29 08:12:07 32° 62° (ENE) 08:15:44 437.425
LilacSat-2 22 Feb 08:08:45 08:12:06 28° 297° (WNW) 08:15:26 437.200
FO-29 22 Feb 08:10:39 08:16:25 25° 44° (NE) 08:22:26 435.910
ZACube-1 22 Feb 08:16:20 08:19:02 15° 85° (E) 08:21:41 437.345
O/OREOS (USA 219) 22 Feb 08:16:27 08:20:51 44° 49° (NE) 08:25:14 437.305
NUDT-PHONESAT 22 Feb 08:20:41 08:23:52 26° 298° (WNW) 08:27:01 437.300
SEEDS 22 Feb 08:24:48 08:28:53 47° 99° (E) 08:32:55 437.485
AAUSAT CUBESAT 2 22 Feb 08:25:02 08:28:35 27° 93° (E) 08:32:06 437.432
AO-7 22 Feb 08:29:51 08:35:14 19° 337° (NNW) 08:40:37 .
BEESAT 2 22 Feb 08:32:42 08:36:16 32° 123° (ESE) 08:39:52 435.950
DOVE 4 22 Feb 08:33:13 08:36:47 24° 301° (WNW) 08:40:31 437.250
CUBEBUG 2 22 Feb 08:37:15 08:41:52 47° 98° (E) 08:46:28 437.445
UNISAT 6 22 Feb 08:48:43 08:52:51 35° 63° (ENE) 08:57:04 437.425
TIGRISAT 22 Feb 08:50:11 08:54:16 34° 62° (ENE) 08:58:28 435.000
XW-2A 22 Feb 08:56:07 08:59:21 37° 293° (WNW) 09:02:35 145.665 - 145.685
CUTE 1.7 + AOD 2 22 Feb 08:56:19 09:00:33 66° 288° (WNW) 09:04:44 437.475
HO-68 22 Feb 09:03:33 09:10:46 87° 290° (WNW) 09:17:57 435.675
SO-50 22 Feb 09:03:58 09:06:57 17° 245° (WSW) 09:09:54 436.795
AO-73 22 Feb 09:05:59 09:10:13 35° 95° (E) 09:14:23 145.935
POLYITAN 1 22 Feb 09:15:50 09:16:51 11° 47° (NE) 09:17:52 437.675
Oscar 11 22 Feb 09:17:20 09:21:24 37° 96° (E) 09:25:25 .
KAITUO 1B 22 Feb 09:17:34 09:17:54 10° 310° (NW) 09:18:15 145.475/437.950
QB50P2 22 Feb 09:18:05 09:19:36 12° 48° (NE) 09:21:07 145.880/145.840
NANOSAT C BR1 22 Feb 09:18:54 09:19:44 10° 47° (NE) 09:20:34 145.865
YUBILEINY 22 Feb 09:21:50 09:27:33 20° 70° (ENE) 09:33:15 435.215
UWE-3 22 Feb 09:22:13 09:26:57 76° 103° (ESE) 09:31:37 435.000/436.395/437.385
CUTE-I 22 Feb 09:29:21 09:32:55 18° 312° (NW) 09:36:28 437.470
AIST 2D 22 Feb 09:37:18 09:39:28 15° 58° (ENE) 09:41:39 435.315
BEESAT 3 22 Feb 09:39:36 09:43:27 49° 326° (NW) 09:47:23 437.485
PRISM 22 Feb 09:43:33 09:47:21 37° 262° (W) 09:51:11 437.425
AO-85 22 Feb 09:43:36 09:46:52 22° 353° (N) 09:50:02 145.980
ZACube-1 22 Feb 09:51:22 09:56:01 87° 106° (ESE) 10:00:35 437.345
FO-29 22 Feb 09:53:01 10:00:13 69° 67° (ENE) 10:08:01 435.910
O/OREOS (USA 219) 22 Feb 09:56:02 10:00:13 36° 250° (WSW) 10:04:23 437.305
AAUSAT CUBESAT 2 22 Feb 10:00:17 10:04:13 43° 293° (WNW) 10:08:07 437.432
SEEDS 22 Feb 10:00:51 10:04:24 27° 299° (WNW) 10:07:55 437.485
BUGSAT 1 22 Feb 10:05:08 10:05:13 10° 47° (NE) 10:05:18 437.445
ISS 22 Feb 10:09:53 10:11:38 14° 146° (SE) 10:13:24 437.550
BEESAT 2 22 Feb 10:09:59 10:13:55 53° 324° (NW) 10:17:54 435.950
CUBEBUG 2 22 Feb 10:14:08 10:18:21 33° 298° (WNW) 10:22:36 437.445
AO-7 22 Feb 10:20:46 10:25:02 15° 5° (N) 10:29:17 .
DUCHIFAT 1 22 Feb 10:25:05 10:28:44 29° 61° (ENE) 10:32:25 145.980
UNISAT 6 22 Feb 10:25:16 10:29:32 40° 263° (W) 10:33:55 437.425
TIGRISAT 22 Feb 10:26:38 10:30:55 41° 263° (W) 10:35:19 435.000
DELFI C3 22 Feb 10:28:41 10:32:36 63° 102° (ESE) 10:36:30 145.870
EO-79 22 Feb 10:31:28 10:35:22 37° 64° (ENE) 10:39:18 145.935-145.965
CUTE 1.7 + AOD 2 22 Feb 10:33:41 10:35:38 13° 309° (NW) 10:37:34 437.475
AO-73 22 Feb 10:42:13 10:46:31 40° 295° (WNW) 10:50:46 145.935
Tancredo 1 22 Feb 10:42:46 10:45:15 20° 153° (SSE) 10:47:44 437.200
ESTCUBE 1 22 Feb 10:45:33 10:47:00 11° 83° (E) 10:48:27 437.505/2401.250
POLYITAN 1 22 Feb 10:47:36 10:51:44 50° 68° (ENE) 10:55:54 437.675
QB50P2 22 Feb 10:50:22 10:54:32 56° 69° (ENE) 10:58:45 145.880/145.840
NANOSAT C BR1 22 Feb 10:50:26 10:54:31 50° 68° (ENE) 10:58:39 145.865
HO-68 22 Feb 10:51:50 10:57:46 29° 313° (NW) 11:03:40 435.675
Oscar 11 22 Feb 10:53:34 10:57:32 35° 296° (WNW) 11:01:28 .
UWE-3 22 Feb 10:59:22 11:02:57 22° 304° (WNW) 11:06:31 435.000/436.395/437.385
AIST 2D 22 Feb 11:08:42 11:12:15 72° 256° (WSW) 11:15:52 435.315
YUBILEINY 22 Feb 11:14:00 11:22:42 67° 94° (E) 11:31:24 435.215
BEESAT 3 22 Feb 11:18:39 11:21:52 23° 349° (NNW) 11:25:06 437.485
AO-85 22 Feb 11:24:57 11:28:23 26° 18° (NNE) 11:31:45 145.980
ZACube-1 22 Feb 11:28:31 11:31:45 19° 305° (NW) 11:34:57 437.345
Oscar 19 22 Feb 11:29:44 11:33:46 24° 54° (NE) 11:37:50 437.125/150
BUGSAT 1 22 Feb 11:35:44 11:39:39 49° 67° (ENE) 11:43:40 437.445
FO-29 22 Feb 11:39:11 11:45:47 37° 270° (W) 11:52:54 435.910
ISS 22 Feb 11:44:25 11:47:27 34° 165° (SSE) 11:50:29 437.550
Gurwin Techsat 1B 22 Feb 11:47:38 11:51:37 22° 51° (NE) 11:55:36 435.225
BEESAT 2 22 Feb 11:49:10 11:52:28 23° 347° (NNW) 11:55:46 435.950
SPROUT 22 Feb 11:58:28 12:01:13 16° 88° (E) 12:03:58 437.525
DUCHIFAT 1 22 Feb 12:00:15 12:04:17 44° 261° (W) 12:08:22 145.980
DELFI C3 22 Feb 12:04:11 12:07:03 20° 302° (WNW) 12:09:55 145.870
EO-79 22 Feb 12:07:19 12:11:11 33° 264° (W) 12:15:05 145.935-145.965
AO-7 22 Feb 12:08:50 12:15:02 24° 32° (NNE) 12:21:14 .
Tancredo 1 22 Feb 12:17:58 12:21:03 41° 172° (S) 12:24:08 437.200
ESTCUBE 1 22 Feb 12:20:11 12:24:42 69° 104° (ESE) 12:29:10 437.505/2401.250
POLYITAN 1 22 Feb 12:24:17 12:27:47 25° 268° (W) 12:31:20 437.675
NANOSAT C BR1 22 Feb 12:27:00 12:30:30 25° 267° (W) 12:34:02 145.865
QB50P2 22 Feb 12:27:20 12:30:40 22° 269° (W) 12:34:03 145.880/145.840
HO-68 22 Feb 12:40:37 12:43:20 13° 338° (NNW) 12:46:04 435.675
50 SAT 22 Feb 12:56:33 12:59:53 41° 99° (E) 13:03:11 437.505
BEESAT 3 22 Feb 12:57:21 13:00:37 23° 12° (NNE) 13:03:53 437.485
VELOX 1 22 Feb 13:00:10 13:04:34 62° 103° (ESE) 13:08:57 145.980
DX 1 22 Feb 13:03:01 13:07:00 34° 97° (E) 13:10:57 434.975-435.025
AO-85 22 Feb 13:05:21 13:09:20 77° 40° (NE) 13:13:16 145.980
Oscar 19 22 Feb 13:07:27 13:12:38 79° 255° (WSW) 13:17:49 437.125/150
YUBILEINY 22 Feb 13:11:55 13:20:08 41° 299° (WNW) 13:28:22 435.215
BUGSAT 1 22 Feb 13:11:58 13:15:17 24° 268° (W) 13:18:39 437.445
ISS 22 Feb 13:20:26 13:23:35 43° 184° (S) 13:26:44 437.550
UKube-1 22 Feb 13:21:50 13:25:53 37° 98° (E) 13:29:53 .
Gurwin Techsat 1B 22 Feb 13:25:37 13:30:57 89° 73° (ENE) 13:36:20 435.225
BEESAT 2 22 Feb 13:28:06 13:31:23 23° 11° (N) 13:34:40 435.950
SPROUT 22 Feb 13:33:22 13:37:42 79° 287° (WNW) 13:42:01 437.525
ITAMSAT 1 22 Feb 13:34:33 13:39:07 32° 58° (ENE) 13:43:44 435.822/435.867
Tancredo 1 22 Feb 13:53:59 13:57:01 37° 192° (SSW) 14:00:03 437.200
ESTCUBE 1 22 Feb 13:57:39 14:01:07 22° 304° (WNW) 14:04:34 437.505/2401.250
AO-7 22 Feb 13:58:12 14:06:18 57° 56° (ENE) 14:14:25 .
50 SAT 22 Feb 14:30:05 14:32:51 22° 298° (WNW) 14:35:36 437.505
BEESAT 3 22 Feb 14:35:03 14:39:00 52° 35° (NE) 14:42:56 437.485
VELOX 1 22 Feb 14:37:12 14:40:43 24° 302° (WNW) 14:44:13 145.980
DX 1 22 Feb 14:39:12 14:43:15 38° 296° (WNW) 14:47:17 434.975-435.025
MOZHAYETS 4 22 Feb 14:43:05 14:44:02 11° 81° (E) 14:44:58
AO-85 22 Feb 14:46:26 14:49:18 20° 242° (WSW) 14:52:09 145.980
Oscar 19 22 Feb 14:49:47 14:52:49 16° 275° (W) 14:55:51 437.125/150
ISS 22 Feb 14:56:53 14:59:36 24° 205° (SSW) 15:02:19 437.550
UKube-1 22 Feb 14:57:58 15:01:55 35° 297° (WNW) 15:05:49 .
BEESAT 2 22 Feb 15:06:01 15:09:59 49° 34° (NNE) 15:13:56 435.950
Gurwin Techsat 1B 22 Feb 15:07:56 15:11:39 19° 273° (W) 15:15:24 435.225
SPROUT 22 Feb 15:10:27 15:12:59 15° 308° (NW) 15:15:30 437.525
ITAMSAT 1 22 Feb 15:13:16 15:18:23 57° 258° (WSW) 15:23:34 435.822/435.867
YUBILEINY 22 Feb 15:15:13 15:20:06 16° 329° (NNW) 15:25:00 435.215
ITUPSAT 1 22 Feb 15:19:33 15:24:11 44° 99° (E) 15:28:46 437.325
BEESAT 22 Feb 15:28:19 15:33:02 53° 101° (E) 15:37:43 436.000
Tancredo 1 22 Feb 15:30:40 15:32:44 16° 211° (SSW) 15:34:48 437.200
AO-7 22 Feb 15:51:13 15:59:17 50° 259° (W) 16:07:24 .
LilacSat-2 22 Feb 15:52:40 15:53:00 10° 50° (NE) 15:53:19 437.200
CUTE-I 22 Feb 15:59:55 16:03:37 19° 49° (NE) 16:07:21 437.470
HO-68 22 Feb 16:08:51 16:13:01 17° 31° (NNE) 16:17:11 435.675
BEESAT 3 22 Feb 16:12:52 16:16:31 34° 236° (SW) 16:20:09 437.485
MOZHAYETS 4 22 Feb 16:17:34 16:22:11 62° 102° (ESE) 16:26:45
STARS 22 Feb 16:20:03 16:21:35 12° 84° (E) 16:23:08 437.465
DOVE 4 22 Feb 16:31:23 16:34:38 23° 58° (ENE) 16:37:57 437.250
BEESAT 2 22 Feb 16:43:57 16:47:43 37° 235° (SW) 16:51:28 435.950
XW-2F 22 Feb 16:53:37 16:56:57 28° 63° (ENE) 17:00:18 145.980 - 146.000
KAITUO 1B 22 Feb 16:54:21 16:57:32 25° 62° (ENE) 17:00:44 145.475/437.950
XW-2D 22 Feb 16:56:11 16:59:37 31° 64° (ENE) 17:03:04 145.860 - 145.880
ITUPSAT 1 22 Feb 16:57:34 17:01:56 35° 299° (WNW) 17:06:17 437.325
ITAMSAT 1 22 Feb 16:57:42 16:59:03 11° 279° (W) 17:00:24 435.822/435.867
XW-2B 22 Feb 17:01:04 17:04:34 33° 65° (ENE) 17:08:05 145.730 - 145.750
BEESAT 22 Feb 17:06:27 17:10:37 30° 301° (WNW) 17:14:46 436.000
CUBESAT XI-V 22 Feb 17:08:28 17:12:48 38° 96° (E) 17:17:06 437.345
XW-2C 22 Feb 17:09:24 17:13:02 40° 67° (ENE) 17:16:41 145.795 - 145.815
KKS-1 22 Feb 17:11:29 17:15:55 58° 102° (ESE) 17:20:19 437.445
PCSat 22 Feb 17:11:55 17:16:33 30° 114° (ESE) 17:21:14 145.827
LilacSat-2 22 Feb 17:22:40 17:26:28 55° 71° (ENE) 17:30:18 437.200
NUDT-PHONESAT 22 Feb 17:32:30 17:36:11 55° 70° (ENE) 17:39:55 437.300
CUTE-I 22 Feb 17:37:35 17:42:55 76° 70° (ENE) 17:48:19 437.470
M-CUBED/EXP-1 PRIME 22 Feb 17:49:29 17:52:38 28° 103° (ESE) 17:55:58 437.505
SEEDS 22 Feb 17:49:43 17:52:11 15° 53° (NE) 17:54:40 437.485
RS-15 22 Feb 17:50:41 18:01:22 40° 109° (ESE) 18:12:18 29.354- 29.394
AO-7 22 Feb 17:50:52 17:54:19 13° 283° (WNW) 17:57:47 .
HO-68 22 Feb 17:52:26 17:59:06 43° 55° (NE) 18:05:46 435.675
STARS 22 Feb 17:54:20 17:58:47 71° 104° (ESE) 18:03:12 437.465
MOZHAYETS 4 22 Feb 17:55:15 17:59:02 25° 302° (WNW) 18:02:47
XW-2A 22 Feb 18:01:54 18:04:48 26° 64° (ENE) 18:07:44 145.665 - 145.685
CUBEBUG 2 22 Feb 18:07:36 18:10:35 18° 53° (NE) 18:13:37 437.445
DOVE 4 22 Feb 18:07:59 18:12:04 57° 259° (W) 18:16:14 437.250
CUTE 1.7 + AOD 2 22 Feb 18:20:20 18:24:11 33° 64° (ENE) 18:28:03 437.475
XW-2F 22 Feb 18:27:25 18:31:02 37° 263° (W) 18:34:40 145.980 - 146.000
KAITUO 1B 22 Feb 18:27:46 18:31:25 42° 262° (W) 18:35:05 145.475/437.950
XW-2D 22 Feb 18:30:15 18:33:48 34° 264° (W) 18:37:22 145.860 - 145.880
AO-73 22 Feb 18:34:47 18:36:59 14° 49° (NE) 18:39:13 145.935
XW-2B 22 Feb 18:35:19 18:38:47 31° 264° (W) 18:42:18 145.730 - 145.750
XW-2C 22 Feb 18:44:05 18:47:22 26° 266° (W) 18:50:41 145.795 - 145.815
Oscar 11 22 Feb 18:45:21 18:47:36 14° 51° (NE) 18:49:52 .
CUBESAT XI-V 22 Feb 18:45:57 18:50:12 37° 297° (WNW) 18:54:24 437.345
KKS-1 22 Feb 18:48:32 18:52:13 26° 302° (WNW) 18:55:53 437.445
UWE-3 22 Feb 18:50:37 18:54:19 25° 58° (ENE) 18:58:05 435.000/436.395/437.385
PCSat 22 Feb 18:54:10 18:59:36 72° 316° (NW) 19:05:04 145.827
LilacSat-2 22 Feb 18:58:11 19:01:05 20° 270° (W) 19:04:00 437.200
NUDT-PHONESAT 22 Feb 19:07:44 19:10:27 19° 270° (W) 19:13:12 437.300
YUBILEINY 22 Feb 19:18:16 19:24:03 19° 38° (NE) 19:29:47 435.215
ZACube-1 22 Feb 19:18:28 19:22:18 28° 60° (ENE) 19:26:11 437.345
CUTE-I 22 Feb 19:19:25 19:23:35 23° 271° (W) 19:27:46 437.470
AAUSAT CUBESAT 2 22 Feb 19:21:40 19:25:39 45° 68° (ENE) 19:29:38 437.432
SEEDS 22 Feb 19:23:01 19:27:16 82° 74° (ENE) 19:31:31 437.485
M-CUBED/EXP-1 PRIME 22 Feb 19:23:54 19:27:12 37° 300° (WNW) 19:30:42 437.505
STARS 22 Feb 19:31:21 19:34:44 22° 304° (NW) 19:38:06 437.465
STRAND 1 22 Feb 19:34:00 19:38:43 34° 95° (E) 19:43:24 437.568
XW-2A 22 Feb 19:34:25 19:37:30 32° 263° (W) 19:40:39 145.665 - 145.685
HO-68 22 Feb 19:39:37 19:46:42 59° 257° (WSW) 19:53:49 435.675
CUBEBUG 2 22 Feb 19:42:05 19:46:33 86° 76° (ENE) 19:51:13 437.445
DELFI C3 22 Feb 19:48:00 19:50:28 16° 56° (NE) 19:52:55 145.870
CUTE 1.7 + AOD 2 22 Feb 19:55:59 20:00:00 38° 263° (W) 20:04:02 437.475
RS-15 22 Feb 20:00:33 20:12:45 89° 314° (NW) 20:25:15 29.354- 29.394
AO-73 22 Feb 20:07:58 20:12:23 62° 70° (ENE) 20:16:55 145.935
Oscar 11 22 Feb 20:18:41 20:23:01 69° 71° (ENE) 20:27:23 .
UWE-3 22 Feb 20:26:01 20:30:28 60° 260° (W) 20:35:02 435.000/436.395/437.385
PCSat 22 Feb 20:39:06 20:43:52 30° 340° (NNW) 20:48:39 145.827
ZACube-1 22 Feb 20:53:59 20:58:21 52° 261° (W) 21:02:51 437.345
AAUSAT CUBESAT 2 22 Feb 20:57:48 21:01:19 26° 267° (W) 21:04:51 437.432
SEEDS 22 Feb 21:00:58 21:03:32 16° 273° (W) 21:06:07 437.485
STRAND 1 22 Feb 21:13:07 21:18:05 49° 296° (WNW) 21:23:02 437.568
YUBILEINY 22 Feb 21:14:57 21:23:29 51° 66° (ENE) 21:31:55 435.215
PRISM 22 Feb 21:17:51 21:20:43 18° 90° (E) 21:23:33 437.425
DELFI C3 22 Feb 21:20:47 21:24:46 84° 259° (WSW) 21:28:45 145.870
CUBEBUG 2 22 Feb 21:21:02 21:23:52 16° 275° (W) 21:26:45 437.445
HO-68 22 Feb 21:32:12 21:36:02 15° 280° (W) 21:39:53 435.675
AO-73 22 Feb 21:45:31 21:49:02 22° 270° (W) 21:52:36 145.935
ESTCUBE 1 22 Feb 21:50:49 21:54:34 26° 59° (ENE) 21:58:19 437.505/2401.250
Oscar 11 22 Feb 21:56:29 21:59:37 19° 271° (W) 22:02:46 .
UWE-3 22 Feb 22:07:50 22:07:57 10° 280° (W) 22:08:04 435.000/436.395/437.385
UNISAT 6 22 Feb 22:09:18 22:13:25 29° 93° (E) 22:17:30 437.425
TIGRISAT 22 Feb 22:10:32 22:14:37 28° 92° (E) 22:18:39 435.000
RS-15 22 Feb 22:14:34 22:26:41 58° 347° (NNW) 22:38:53 29.354- 29.394
PCSat 22 Feb 22:24:27 22:28:51 24° 5° (N) 22:33:15 145.827
VELOX 1 22 Feb 22:29:05 22:32:33 23° 57° (ENE) 22:36:03 145.980
DX 1 22 Feb 22:31:34 22:33:58 15° 51° (NE) 22:36:22 434.975-435.025
O/OREOS (USA 219) 22 Feb 22:40:02 22:40:52 10° 96° (E) 22:41:42 437.305
